Погода в Питтсбурге

США     40°26′26″N   79°59′47″W
темп.,
°C
ветер,
м/с
пор.,
м/с
влажн.,
%
обл.,
%
осадки,
мм/ч
давл.,
гПа
погр.,
м
6 мая, чт
чт623:00+8сз3867100 0.1 10191384
02:00+5ссз29850 0.1 1020457
05:00+3ссз28865 0.0 1021355
08:00+5ссз247316 0.0 1021297
11:00+11сз2345100 0.0 10201325
14:00+13сз2339100 0.0 10181586
17:00+14ссз2341100 0.0 10151806
20:00+11всв126285 0.0 101549
7 мая, пт
пт723:00+8вюв2668100 0.0 1014162
02:00+8юв2669100 0.0 1012199
05:00+8юз1570100 0.0 1010248
08:00+7ююз0197100 1.5 1010153
11:00+6сз4696100 2.4 1012907
14:00+7сз4780100 2.8 1012925
17:00+10сз575674 0.1 10121576
20:00+7ссз25705 0.1 1012314
8 мая, сб
сб823:00+4ссз11795 0.0 101310
02:00+4ююз118296 0.0 101213
05:00+4з139494 0.4 1012235
08:00+2ссз2599100 3.6 1016314
11:00+6з259497 0.7 1017604
14:00+10зюз356729 0.9 10161139
17:00+12з455459 0.3 10161421
20:00+8зсз277310 0.6 1018264
9 мая, вс
вс923:00+5з128592 0.0 102035
02:00+4юз1184100 0.0 102022
05:00+3ююз12875 0.0 102030
08:00+6ю137565 0.0 1020256
11:00+11ю2353100 0.0 1018945
14:00+9ю3474100 0.3 1015965
17:00+7всв3798100 6.9 1012383
20:00+7всв3998100 13.5 1011387
10 мая, пн
пн1023:00+7св3699100 5.9 1008231
02:00+8всв1399100 13.8 1004161
05:00+11зсз28100100 5.0 1003350
08:00+9сз2699100 9.2 1006255
11:00+9зсз2497100 1.1 1006311
14:00+8сз4895100 1.4 1010715
17:00+8ссз4985100 0.1 1014885
20:00+8сз38697 0.1 1016829